Regional Weather Roundup
Issued by NWS Sterling, VA

Home | Current Version | Previous Version | Graphics & Text | Print | Product List | Glossary On
Versions: 1 2 3 4 5 6 7 8 9 10 11 12 13 14 15 16 17 18 19 20 21 22 23 24 25 26 27 28 29 30 31 32 33 34 35 36 37 38 39 40 41 42 43 44 45 46 47 48 49 50
000
ASUS41 KLWX 301010
RWRLWX

REGIONAL WEATHER ROUNDUP
NATIONAL WEATHER SERVICE BALTIMORE MD/WASHINGTON DC
500 AM EST FRI JAN 30 2015

Note: "FAIR" indicates few or no clouds below 12,000 feet
with no significant weather and/or obstructions to visibility.
 TC=TEMPERATURE CELSIUS

 * =Non NWS site. Station does not report precipitation (e.g. rain,
    snow, etc.), thunder, or fog.

DCZ001-MDZ009-015-VAZ040>042-051-053>054-301100-
WASHINGTON METRO

CITY           SKY/WX    TMP DP  RH WIND       PRES   REMARKS
WASHINGTON NAT CLOUDY    42  28  57 NW10      29.93S
DULLES         MOCLDY    37  28  70 NW14      29.93R WCI  28
ANDREWS AFB    CLOUDY    38  27  63 NW10      29.91S
FT BELVOIR     CLOUDY    39  28  63 NW10      29.93S
QUANTICO       CLOUDY    36  27  69 W3        29.94S
COLLEGE PARK*  CLOUDY    37  30  75 NW3       29.92R
LEESBURG*      MOCLDY    37  32  81 NW13G18   29.94R
MANASSAS*      CLOUDY    39  28  65 NW10      29.93R
GAITHERSBURG*  PTCLDY    36  27  69 NW14      29.94R WCI  27

$$

MDZ006>007-011-014-301100-
BALTIMORE METRO

CITY           SKY/WX    TMP DP  RH WIND       PRES   REMARKS
BWI AIRPORT    CLOUDY    37  27  67 W10       29.90S
MD SCIENCE CTR   N/A     38  26  62 MISG      29.91S
MARTIN STATE   CLOUDY    37  30  75 W10       29.92S
ANNAPOLIS      CLOUDY    39  26  59 NW6       29.91R
FORT MEADE*    CLOUDY    36  30  80 NW7       29.94R

$$

MDZ012-015-019>023-301100-
MARYLAND EASTERN SHORE

CITY           SKY/WX    TMP DP  RH WIND       PRES   REMARKS
OCEAN CITY     LGT RAIN  39  27  62 W8        29.89S
SALISBURY      LGT RAIN  41  27  57 W10       29.90S
BAY BRIDGE AP*   N/A     37  28  70 NW10G16   29.92R
CAMBRIDGE*     CLOUDY    39  27  60 W3        29.91R
EASTON*        CLOUDY    41  29  63 NW12      29.93F

$$

MDZ017>025-301100-
SOUTHERN MARYLAND

CITY           SKY/WX    TMP DP  RH WIND       PRES   REMARKS
PATUXENT RIVER CLOUDY    38  28  67 W6        29.91S
ST INIGOES     LGT RAIN  39  27  62 W3        29.92R
LEONARDTOWN*   CLOUDY    37  27  65 W3        29.93S

$$

MDZ003>005-301100-
NORTH CENTRAL MARYLAND

CITY           SKY/WX    TMP DP  RH WIND       PRES   REMARKS
FREDERICK*     PTCLDY    37  28  70 W7G16     29.96R
HAGERSTOWN APT MOCLDY    34  25  69 NW12      29.92R WCI  25
WESTMINSTER*   MOCLDY    34  27  75 W8        29.89S WCI  27

$$

MDZ501>502-301100-
WESTERN MARYLAND

CITY           SKY/WX    TMP DP  RH WIND       PRES   REMARKS
OAKLAND*       CLOUDY    23 N/A N/A W8G18     29.90R FOG     WCI  14
CUMBERLAND*    CLOUDY    34  27  75 NW5       30.02R

$$

VAZ025>031-301100-
SHENANDOAH VALLEY

CITY           SKY/WX    TMP DP  RH WIND       PRES   REMARKS
WINCHESTER*    CLOUDY    37  25  60 NW16G24   29.95R WCI  28
FRONT ROYAL*   CLOUDY    36  30  80 NW8G17    29.94R
LURAY*         CLOUDY    41  28  60 W8G25     29.95R
NEW MARKET*    CLOUDY    38  25  58 W7        29.95R
STAUNTON*      CLOUDY    39  22  50 W9        29.97R
WAYNESBORO*    CLOUDY    37  23  56 NW9G17    29.94R

$$

WVZ021-048>050-054>055-301100-
EASTERN WEST VIRGINIA PANHANDLE

CITY           SKY/WX    TMP DP  RH WIND       PRES   REMARKS
MARTINSBURG    PTCLDY    38  22  52 NW14G25   29.95R
PETERSBURG*    FLURRIES  34  26  70 N8G16     30.00R WCI  28

$$

VAZ036>039-050-301100-
CENTRAL FOOTHILLS

CITY           SKY/WX    TMP DP  RH WIND       PRES   REMARKS
CHARLOTTESVILL CLOUDY    42  24  49 NW7       29.94R
CULPEPER*      PTCLDY    41  28  60 NW3       29.93S
ORANGE*        CLOUDY    37  30  75 W7G20     29.95R
GORDONSVILLE*  CLOUDY    40  27  60 CALM      29.93R
WARRENTON*     FAIR      40  33  75 NW7       29.92R

$$

VAZ055>057-301100-
NORTH AND CENTRAL PIEDMONT

CITY           SKY/WX    TMP DP  RH WIND       PRES   REMARKS
FREDERICKSBRG* CLOUDY    40  26  57 NW3       29.92S
STAFFORD*      CLOUDY    37  24  57 CALM      29.96S

$$

NCZ024-NYZ072-PAZ021-071-VAZ022-071-301100-
OTHER REGIONAL OBSERVATIONS

CITY           SKY/WX    TMP DP  RH WIND       PRES   REMARKS
NEW YORK CITY  CLOUDY    35  27  72 VRB3      29.87F
PHILADELPHIA   CLOUDY    34  25  69 W6        29.88S
PITTSBURGH     LGT SNOW  29  26  89 NW18      30.02R WCI  16
ROANOKE        CLOUDY    38  22  52 NW14G22   30.02R
RICHMOND       CLOUDY    43  26  51 W6        29.91S
RALEIGH        LGT RAIN  39  28  64 SW3       29.97R

$$

ANZ530>537-301100-
MARINE OBSERVATIONS

STATION/POSITION TIME  TEMP    WIND        PRES
                       AIR SEA DIR/SP/G
                 (UTC) (F)     (DEG/KT/KT) (MB)
THOMAS PT LIGHT  1000   39 35  300/ 10/ 11 1013.9R
BALT KEY BRIDGE  1000   38     280/  9/ 10 1012.8R
COVE POINT       1000   40     320/  9/ 11 1012.5S
LEWISETTA        1000   39 36  300/  7/  8 1013.0S
SOLOMONS ISLAND  1000      37                N/A
PINEY POINT      1000          320/  5/  5   N/A

$$




USA.gov is the U.S. government's official web portal to all federal, state and local government web resources and services.